Regional Weather Roundup
Issued by NWS

Home | Current Version | Previous Version | Text Only | Print | Product List | Glossary On
Versions: 1 2 3 4 5 6 7 8 9 10 11 12 13 14 15 16 17 18 19 20 21 22 23 24 25 26 27 28 29 30 31 32 33 34 35 36 37 38 39 40 41 42 43 44 45 46 47 48 49 50
000
ASUS43 KFSD 190310
RWRSD

WEATHER ROUNDUP FOR SOUTH DAKOTA
NATIONAL WEATHER SERVICE SIOUX FALLS SD
1000 PM CDT FRI APR 18 2014

NOTE: "FAIR" INDICATES FEW OR NO CLOUDS BELOW 12,000 FEET WITH NO
SIGNIFICANT WEATHER AND/OR OBSTRUCTIONS TO VISIBILITY.


SDZ001>005-009-010-012>017-190400-
NORTHWEST AND NORTH CENTRAL SOUTH DAKOTA

CITY           SKY/WX    TMP DP  RH WIND       PRES   REMARKS
BUFFALO          N/A     50  41  71 N14       29.64R
FAITH            N/A     65  40  39 SW14      29.59R
MOBRIDGE       CLOUDY    61  41  47 S25       29.55R
$$

SDZ012>016-024>037-041>051-057-063-072>074-190400-
SOUTHWEST AND SOUTH CENTRAL SOUTH DAKOTA

CITY           SKY/WX    TMP DP  RH WIND       PRES   REMARKS
RAPID CTY ARPT MOCLDY    59  38  45 N22G29    29.65R
PIERRE         MOCLDY    68  41  37 S21G30    29.62S
CUSTER         CLOUDY    61  31  32 W9G20     29.80R
ELLSWORTH AFB  MOCLDY    60  39  46 N24       29.66R
PHILIP         MOCLDY    70  40  33 S18       29.61R
PINE RIDGE     CLOUDY    72  36  26 S12G23    29.72R
SPEARFISH      FAIR      54  39  58 W8        29.77R
WINNER         FAIR      68  41  37 S33G39    29.72S
$$

SDZ004>011-016>023-039-040-190400-
NORTHEAST SOUTH DAKOTA

CITY           SKY/WX    TMP DP  RH WIND       PRES   REMARKS
ABERDEEN       PTCLDY    56  39  53 SE25G36   29.74F
WATERTOWN      CLOUDY    54  37  52 SE18G31   29.88F
SISSETON         N/A     45  37  73 S24G32    29.91F
$$

SDZ017-020-022-023-036>040-048>070-190400-
SOUTHEAST SOUTH DAKOTA

CITY           SKY/WX    TMP DP  RH WIND       PRES   REMARKS
SIOUX FALLS    CLOUDY    59  37  44 S20G29    29.94S
HURON          CLOUDY    62  41  46 SE21G28   29.79R
CHAMBERLAIN      N/A     67  42  40 S24G33    29.74R
MITCHELL       CLOUDY    63  42  46 SE21G31   29.84R
YANKTON        CLOUDY    61  39  44 SE21G28   29.93S
$$

ABBREVIATIONS USED IN REMARKS
   TC - TEMPERATURE IN CELSIUS
  WCI - WIND CHILL INDEX
   HX - HEAT INDEX
  VSB - VISIBILITY




USA.gov is the U.S. government's official web portal to all federal, state and local government web resources and services.